Location: downtown San Diego
(32.7310°N, 117.1990°W)
Time: 14:42:18
(UTC-08:00)

ERS-1 Rocket - Pass Details

Date: 12 July 2018
Orbit: 753 x 758 km, 98.5° (Epoch: 11 November)

Event Time Altitude Azimuth Distance (km) Brightness Sun altitude
Exits shadow 22:06:33 53° 157° (SSE) 926 3.0 -22.3°
Maximum altitude 22:07:45 84° 77° (ENE) 766 2.9 -22.5°
Drops below altitude 10° 22:12:49 10° 349° (N) 2,290 6.3 -23.2°
Sets 22:15:07 0° 349° (NNW) 3,218 7.2 -23.5°
